Details From CYXY - WHITEHORSE INTL
To PAJN - Juneau Intl
Flight Number -
Tags generated
Created
Modified
Stats Distance 142 nm / 264 km
Max Altitude 0 ft / 0 m
Waypoints 3
Social Downloads 8
Likes 0
Share VATSIM

Download

Looking for another format? Having issues loading an existing format? Contact us
Advertisement - Login to hide

Notes

None

Route

CYXY KITAR PAJN

ID Type Via Altitude Latitude Longitude Leg Dist Tot Dist Heading (true) Name
O CYXY APT - 0 ft / 0 m 60.71219˚ -135.06711˚ - 0 nm - WHITEHORSE INTL
KITAR FIX - 0 ft / 0 m 60.00000˚ -135.00000˚ 42 nm 42 nm 177° / 177° -
O PAJN APT - 0 ft / 0 m 58.35496˚ -134.57628˚ 99 nm 142 nm 172° / 173° Juneau Intl

Altitude Profile

Advertisement - Login to hide

CYXY

Details ICAO CYXY (YXY)
Name WHITEHORSE INTL
Region Canada
Timezone America/Whitehorse (UTC-7.0)
Stats Elevation 2,317 ft / 706 m (AMSL)
Location 60.712191° -135.067108°
Runways 3
Magnetic Variation 19.532° E

METAR

CYXY 262200Z 19017G25KT 120V190 40SM -SHRA SCT055TCU BKN100 BKN200 11/00 A2956 RMK TCU3AC3CI1 SLP036 DENSITY ALT 2800FT

Decode

TAF

TAF CYXY 261738Z 2618/2718 16012KT P6SM SCT060 BKN200 TEMPO 2618/2620 BKN060 BKN120 FM262000 16012G22KT P6SM BKN060 TEMPO 2620/2703 P6SM -SHRA OVC060 FM270300 16010KT P6SM BKN060 FM270900 18008KT P6SM FEW030 SCT060 RMK NXT FCST BY 270000Z

Decode

Departure Runways

ID Width Length Bearing (true) Bearing (mag) Surface Threshold Offset Overrun Length
01 75 ft / 23 m 2,070 ft / 631 m 31.99° 12.46° Asphalt 335 ft / 102 m 0 ft / 0 m
13L 80 ft / 24 m 3,922 ft / 1,195 m 158.54° 139.01° Asphalt 0 ft / 0 m 0 ft / 0 m
13R 150 ft / 46 m 9,469 ft / 2,886 m 159.27° 139.74° Asphalt 850 ft / 259 m 100 ft / 30 m
19 75 ft / 23 m 2,070 ft / 631 m 212.00° 192.47° Asphalt 0 ft / 0 m 0 ft / 0 m
31L 150 ft / 46 m 9,469 ft / 2,886 m 339.29° 319.76° Asphalt 1,400 ft / 427 m 100 ft / 30 m
31R 80 ft / 24 m 3,922 ft / 1,195 m 338.54° 319.01° Asphalt 0 ft / 0 m 0 ft / 0 m

PAJN

Details ICAO PAJN (JNU)
Name Juneau Intl
Region USA (Alaska)
Timezone America/Juneau (UTC-8.0)
Stats Elevation 21 ft / 6 m (AMSL)
Location 58.354964° -134.576278°
Runways 1
Magnetic Variation 19.018° E

METAR

PAJN 262153Z 12018G25KT 10SM -RA FEW011 BKN047 OVC085 08/06 A2967

Decode

TAF

PAJN 261739Z 2618/2718 12015KT P6SM -RA SCT010 BKN045 OVC060 FM270900 11013KT P6SM VCSH SCT025 BKN050 FM271300 11018G28KT P6SM -SHRA OVC040

Decode

Destination Runways

ID Width Length Bearing (true) Bearing (mag) Surface Threshold Offset Overrun Length
08 150 ft / 46 m 8,430 ft / 2,570 m 104.87° 85.85° Asphalt 0 ft / 0 m 450 ft / 137 m
26 150 ft / 46 m 8,430 ft / 2,570 m 284.90° 265.88° Asphalt 0 ft / 0 m 225 ft / 69 m

Approach Navaids

Runway Type Ident Frequency Range Bearing (true) Bearing (mag) Slope Elevation
08 Localiser IJDL 109.90 MHz 18 nm / 33 km 84.92° 65.90° - 21 ft / 6 m (AMSL)
08 DME IJDL 109.90 MHz 18 nm / 33 km - - - 175 ft / 53 m (AMSL)

Popular Alternatives